Home > Weather > Warburg > Past weeks

Flag for Germany Past Weather in Warburg, North Rhine-Westphalia, Germany — Yesterday and Last 2 Weeks

Now
75 °F

Clear.


Feels Like: 78 °F
Forecast: 66 / 89 °F
Wind: 10 mph from South

Location: Paderborn / Lippstadt

Current Time: Aug 26, 2016 at 5:25:39 AM

Latest Report: Aug 26, 2016 at 4:50 AM


Visibility: 10 mi

Pressure: 29.98 "Hg

Humidity: 41%

Dew Point: 50 °F

Location of WarburgLocation

Past Weather in Warburg — Graph

°F

Warburg Temperature Yesterday

Maximum temperature yesterday: 91 °F (at 4:20 PM)
Minimum temperature yesterday: 63 °F (at 6:50 AM)
Average temperature yesterday: 78 °F

High & Low Weather Summary for the Past Weeks

 TemperatureHumidityPressure
High91 °F (Aug 25, 4:20 PM)94% (Aug 11, 10:50 PM)30.36 "Hg (Aug 11, 10:50 PM)
Low46 °F (Aug 11, 3:50 AM)17% (Aug 25, 4:50 PM)29.80 "Hg (Aug 18, 3:50 PM)
Average65 °F68%30.10 "Hg
* Reported Aug 11 3:20 AM — Aug 26 3:50 AM, Warburg, Weather by CustomWeather, © 2016

Note: Actual official high and low records may vary slightly from our data, if they occured in-between our weather recording intervals... More about our weather records

Advertising

Warburg Weather History for the Previous 24 Hours

Scroll right to see more
 ConditionsComfort  
Time TempWeatherWind HumidityBarometerVisibility
3:50 AM
Fri, Aug 26
75 °FClear.9 mph41%29.98 "Hg10 mi
3:20 AM75 °FClear.8 mph39%29.98 "Hg10 mi
2:50 AM75 °FClear.8 mph39%29.98 "Hg10 mi
2:20 AM77 °FClear.9 mph36%29.98 "Hg10 mi
1:50 AM75 °FClear.9 mph41%29.98 "Hg10 mi
1:20 AM70 °FClear.8 mph53%30.01 "Hg10 mi
12:50 AM66 °FClear.9 mph64%30.01 "Hg10 mi
12:20 AM70 °FPassing clouds.3 mph53%30.01 "HgN/A
11:50 PM
Thu, Aug 25
70 °FClear.3 mph53%30.01 "Hg10 mi
11:20 PM70 °FClear.1 mph50%30.01 "Hg10 mi
10:50 PM70 °FClear.1 mph50%30.01 "Hg10 mi
10:20 PM72 °FClear.2 mph47%30.01 "Hg10 mi
9:50 PM77 °FClear.5 mph36%30.01 "Hg10 mi
9:20 PM79 °FSunny.5 mph34%30.01 "Hg10 mi
8:50 PM81 °FPassing clouds.5 mph34%30.01 "HgN/A
8:20 PM82 °FSunny.5 mph32%30.01 "Hg10 mi
7:50 PM86 °FPassing clouds.3 mph29%29.98 "HgN/A
7:20 PM88 °FSunny.8 mph25%29.98 "Hg10 mi
6:50 PM90 °FSunny.7 mph22%30.01 "Hg10 mi
6:20 PM90 °FPassing clouds.8 mph24%30.01 "HgN/A
5:50 PM91 °FPassing clouds.9 mph18%30.01 "HgN/A
5:20 PM91 °FPassing clouds.9 mph23%30.01 "HgN/A
4:50 PM91 °FSunny.12 mph17%30.01 "Hg10 mi
4:20 PM91 °FPassing clouds.12 mph18%30.04 "HgN/A
3:50 PM90 °FPassing clouds.12 mph24%30.04 "HgN/A
3:20 PM90 °FSunny.12 mph24%30.04 "Hg10 mi
2:50 PM88 °FPassing clouds.13 mph24%30.04 "HgN/A
2:20 PM88 °FSunny.13 mph22%30.07 "Hg10 mi
1:50 PM88 °FSunny.14 mph24%30.07 "Hg10 mi
1:20 PM86 °FSunny.14 mph27%30.07 "Hg10 mi
12:50 PM86 °FSunny.15 mph29%30.07 "Hg10 mi
12:20 PM84 °FSunny.14 mph35%30.09 "Hg10 mi
11:50 AM82 °FSunny.14 mph37%30.09 "Hg10 mi
11:20 AM82 °FSunny.14 mph40%30.09 "Hg10 mi
10:50 AM81 °FPassing clouds.12 mph42%30.09 "HgN/A
10:20 AM79 °FPassing clouds.9 mph45%30.12 "HgN/A
9:50 AM79 °FPassing clouds.9 mph48%30.09 "HgN/A
9:20 AM75 °FSunny.6 mph57%30.09 "Hg10 mi
8:50 AM72 °FSunny.6 mph65%30.12 "Hg10 mi
8:20 AM68 °FSunny.7 mph69%30.12 "Hg10 mi
7:50 AM66 °FSunny.7 mph73%30.12 "Hg10 mi
7:20 AM64 °FClear.7 mph78%30.12 "Hg10 mi
6:50 AM63 °FClear.5 mph77%30.12 "Hg10 mi
6:20 AM66 °FClear.7 mph73%30.12 "Hg10 mi
5:50 AM64 °FClear.7 mph78%30.12 "Hg10 mi
5:20 AM64 °FClear.7 mph73%30.12 "Hg10 mi
Weather by CustomWeather, © 2016

See weather overviewHow to use our weather pages